This is the latest recevied weather packets stored in our database for station/object KCXW. If no packets are shown the sender has not sent any weather packets the latest 10 day(s).
| Time | Temp. | Humidity | Pressure | Rain* | Wind** | Luminosity | Snow |
|---|---|---|---|---|---|---|---|
| 1777206208 | 15.56° C | 100% | 1010.8 hPa | - | - | - | - |
| 1777205606 | 15° C | 100% | 1010.5 hPa | - | - | - | - |
| 1777205007 | 15° C | 100% | 1010.5 hPa | - | - | - | - |
| 1777204407 | 15° C | 100% | 1010.2 hPa | - | - | - | - |
| 1777203807 | 15° C | 100% | 1010.2 hPa | - | - | - | - |
| 1777203205 | 15° C | 100% | 1009.8 hPa | - | - | - | - |
| 1777202606 | 15° C | 100% | 1009.8 hPa | - | - | - | - |
| 1777202008 | 15° C | 100% | 1009.5 hPa | - | - | - | - |
| 1777201407 | 15° C | 100% | 1009.5 hPa | - | - | - | - |
| 1777200809 | 15° C | 100% | 1009.5 hPa | - | - | - | - |
| 1777200207 | 15° C | 100% | 1009.5 hPa | - | - | - | - |
| 1777199607 | 16.67° C | 100% | 1009.1 hPa | - | - | - | - |
| 1777199008 | 16.67° C | 100% | 1009.1 hPa | - | - | - | - |
| 1777198406 | 15.56° C | 100% | 1008.8 hPa | - | - | - | - |
| 1777197806 | 15.56° C | 100% | 1008.8 hPa | - | - | - | - |
| 1777197206 | 16.67° C | 100% | 1008.1 hPa | - | - | - | - |
| 1777196607 | 16.67° C | 100% | 1008.1 hPa | - | - | - | - |
| 1777196007 | 16.67° C | 100% | 1008.1 hPa | - | - | - | - |
| 1777195409 | 16.67° C | 100% | 1008.1 hPa | - | - | - | - |
| 1777194808 | 16.67° C | 100% | 1008.8 hPa | - | - | - | - |
| 1777194210 | 16.67° C | 100% | 1008.8 hPa | - | - | - | - |
| 1777193610 | 17.78° C | 100% | 1009.1 hPa | - | - | - | - |
| 1777193010 | 17.78° C | 100% | 1009.1 hPa | - | - | - | - |
| 1777192408 | 17.78° C | 100% | 1009.1 hPa | - | - | - | - |
| 1777191804 | 17.78° C | 100% | 1009.1 hPa | - | - | - | - |
* Rain since midnight (hover to see other rain measurements)
** Current wind speed in m/s (hover to see current wind gust speed)